| time (UTC) | temp F | wind direction | speed knots | gust knots | rain 1hr in | rain 24hr in | rain mn in | humidity % | barometer mb |
| 20260503221608 | 55 | 265 | 1.7 | 5.2 | 0.00 | 0.00 | 0.00 | 26 | 1005.0 |
| 20260503220111 | 56 | 275 | 3.5 | 7.0 | 0.00 | 0.00 | 0.00 | 26 | 1005.3 |
| 20260503214621 | 56 | 249 | 1.7 | 7.0 | 0.00 | 0.00 | 0.00 | 26 | 1005.6 |
| 20260503213001 | 54 | 226 | 1.7 | 8.7 | 0.00 | 0.00 | 0.00 | 25 | 1006.2 |
| 20260503211620 | 54 | 262 | 1.7 | 5.2 | 0.00 | 0.00 | 0.00 | 29 | 1006.3 |
| 20260503210035 | 56 | 179 | 1.7 | 7.0 | 0.00 | 0.00 | 0.00 | 25 | 1006.6 |
| 20260503204552 | 54 | 261 | 0.0 | 7.8 | 0.00 | 0.00 | 0.00 | 28 | 1007.0 |
| 20260503203051 | 55 | 271 | 4.3 | 8.7 | 0.00 | 0.00 | 0.00 | 23 | 1007.3 |
| 20260503201547 | 56 | 182 | 1.7 | 6.1 | 0.00 | 0.00 | 0.00 | 30 | 1007.5 |
| 20260503200052 | 55 | 131 | 2.6 | 7.8 | 0.00 | 0.00 | 0.00 | 25 | 1007.6 |
| 20260503194554 | 53 | 146 | 0.0 | 5.2 | 0.00 | 0.00 | 0.00 | 28 | 1007.9 |
| 20260503193113 | 54 | 153 | 1.7 | 6.1 | 0.00 | 0.00 | 0.00 | 30 | 1008.1 |
| 20260503191620 | 54 | 166 | 1.7 | 5.2 | 0.00 | 0.00 | 0.00 | 29 | 1008.4 |
| 20260503190111 | 53 | 123 | 0.9 | 6.1 | 0.00 | 0.00 | 0.00 | 31 | 1008.6 |
| 20260503184622 | 53 | 247 | 1.7 | 7.0 | 0.00 | 0.00 | 0.00 | 29 | 1009.0 |
| 20260503183114 | 52 | 163 | 1.7 | 5.2 | 0.00 | 0.00 | 0.00 | 35 | 1009.4 |
| 20260503181600 | 53 | 299 | 1.7 | 7.8 | 0.00 | 0.00 | 0.00 | 28 | 1009.7 |
| 20260503180109 | 52 | 261 | 1.7 | 5.2 | 0.00 | 0.00 | 0.00 | 33 | 1010.1 |
| 20260503174502 | 52 | 320 | 1.7 | 6.1 | 0.00 | 0.00 | 0.00 | 34 | 1010.3 |
| 20260503173008 | 51 | 284 | 1.7 | 7.0 | 0.00 | 0.00 | 0.00 | 31 | 1010.6 |
| 20260503171531 | 50 | 329 | 1.7 | 7.8 | 0.00 | 0.00 | 0.00 | 32 | 1010.8 |
| 20260503150113 | 46 | 330 | 0.9 | 4.3 | 0.00 | 0.00 | 0.00 | 39 | 1012.2 |
| 20260503140121 | 42 | 5 | 0.0 | 0.0 | 0.00 | 0.00 | 0.00 | 45 | 1012.4 |
| 20260503100110 | 37 | 118 | 0.9 | 3.5 | 0.00 | 0.00 | 0.00 | 47 | 1013.5 |
| 20260503081546 | 36 | 118 | 0.0 | 0.0 | 0.00 | 0.00 | 0.00 | 47 | 1014.1 |
| 20260503071613 | 36 | 118 | 0.0 | 0.0 | 0.00 | 0.00 | 0.00 | 49 | 1014.6 |
| 20260503070124 | 37 | 118 | 0.0 | 0.0 | 0.00 | 0.00 | 0.00 | 48 | 1014.6 |
| 20260503054507 | 40 | 182 | 0.0 | 0.0 | 0.00 | 0.00 | 0.00 | 39 | 1015.1 |
| 20260503053106 | 40 | 182 | 0.0 | 0.0 | 0.00 | 0.00 | 0.00 | 37 | 1015.3 |
| 20260503051555 | 39 | 178 | 0.0 | 0.0 | 0.00 | 0.00 | 0.00 | 38 | 1015.4 |
| 20260503050052 | 39 | 178 | 0.0 | 0.0 | 0.00 | 0.00 | 0.00 | 43 | 1015.4 |
| 20260503044547 | 40 | 178 | 0.0 | 0.0 | 0.00 | 0.00 | 0.00 | 40 | 1015.6 |
| 20260503043057 | 40 | 178 | 0.0 | 2.6 | 0.00 | 0.00 | 0.00 | 40 | 1015.7 |
| 20260503041615 | 40 | 346 | 0.0 | 0.0 | 0.00 | 0.00 | 0.00 | 43 | 1015.9 |
| 20260503040041 | 41 | 346 | 0.0 | 0.0 | 0.00 | 0.00 | 0.00 | 43 | 1016.0 |
| 20260503034603 | 42 | 162 | 1.7 | 5.2 | 0.00 | 0.00 | 0.00 | 40 | 1015.8 |
| 20260503033127 | 43 | 134 | 0.0 | 4.3 | 0.00 | 0.00 | 0.00 | 41 | 1015.7 |
| 20260503031626 | 43 | 183 | 0.9 | 6.1 | 0.00 | 0.00 | 0.00 | 41 | 1015.7 |
| 20260503030003 | 43 | 155 | 4.3 | 7.8 | 0.00 | 0.00 | 0.00 | 42 | 1015.6 |
| 20260503024517 | 43 | 105 | 4.3 | 8.7 | 0.00 | 0.00 | 0.00 | 43 | 1015.3 |
| 20260503023025 | 43 | 128 | 2.6 | 7.0 | 0.00 | 0.00 | 0.00 | 42 | 1015.3 |
| 20260503021513 | 44 | 128 | 4.3 | 9.6 | 0.00 | 0.00 | 0.00 | 40 | 1015.2 |
| 20260503020044 | 44 | 153 | 4.3 | 8.7 | 0.00 | 0.00 | 0.00 | 39 | 1015.1 |
| 20260503014617 | 45 | 141 | 1.7 | 7.0 | 0.00 | 0.00 | 0.00 | 39 | 1015.1 |
| 20260503013051 | 47 | 148 | 3.5 | 9.6 | 0.00 | 0.00 | 0.00 | 35 | 1015.1 |
| 20260503011525 | 48 | 150 | 1.7 | 7.8 | 0.00 | 0.00 | 0.00 | 33 | 1015.0 |
| 20260503010046 | 49 | 165 | 3.5 | 9.6 | 0.00 | 0.00 | 0.00 | 30 | 1015.1 |
| 20260503004556 | 52 | 217 | 0.9 | 3.5 | 0.00 | 0.00 | 0.00 | 25 | 1015.1 |
| 20260503003053 | 52 | 275 | 1.7 | 6.1 | 0.00 | 0.00 | 0.00 | 25 | 1015.4 |
| 20260503001559 | 53 | 313 | 0.0 | 3.5 | 0.00 | 0.00 | 0.00 | 26 | 1015.5 |
| 20260503000108 | 52 | 140 | 0.9 | 4.3 | 0.00 | 0.00 | 0.00 | 23 | 1015.9 |
| 20260502234617 | 53 | 165 | 0.9 | 6.1 | 0.00 | 0.00 | 0.00 | 26 | 1016.1 |
| 20260502233030 | 52 | 42 | 0.9 | 6.1 | 0.00 | 0.00 | 0.00 | 22 | 1016.3 |
| 20260502231521 | 51 | 177 | 1.7 | 7.0 | 0.00 | 0.00 | 0.00 | 22 | 1016.4 |
| 20260502230028 | 52 | 111 | 0.0 | 6.1 | 0.00 | 0.00 | 0.00 | 24 | 1016.5 |
| 20260502224528 | 51 | 213 | 0.9 | 6.1 | 0.00 | 0.00 | 0.00 | 23 | 1016.6 |
| 20260502223037 | 52 | 114 | 1.7 | 4.3 | 0.00 | 0.00 | 0.00 | 21 | 1016.9 |